sat.trackr.live / text

‹ back to catalog

SHIYAN-24C 01

NORAD 58650 · 2023-206A

PAYLOAD ACTIVE UNKNOWN

§ Identity

Operator
Country
PRC
Launch date
2023-12-25
Launch site
SCSLA
Launch vehicle
Mass (kg)
RCS (m²)

External: N2YO · Heavens-Above · Gunter

§ Orbital elements

Epoch: 2026-09-21T13:59:33.805824Z

Period
96.12 min
Inclination
97.6842°
Eccentricity
0.0004911
Mean motion
14.98145985 rev/d
Perigee alt
569.2 km
Apogee alt
576.0 km
Semi-major
6,950.8 km
B*
1.7942e-4
RAAN
227.7094°
Arg perigee
181.3957°
Mean anomaly
178.7253°
Rev number
14,974

§ Raw data

SHIYAN-24C 011 58650U 23206A   26264.58303016  .00002068  00000+0  17942-3 0  99942 58650  97.6842 227.7094 0004911 181.3957 178.7253 14.98145985149744

JSON: /api/v1/satellites/58650 · /tle

For live sub-satellite position, see the globe view (requires WebGL).

§ Visibility from observer

Set your observer location to see the next 7 days of passes ≥ 10°. The values pass through the URL so the page stays shareable.

No JS? Fill the form by hand. The geolocation button needs JavaScript.